#timestamp,LO_Frequency,Hit,StdDev 
1514138415.4,286046997.3,N
1514138435.3,286046997.4,N
1514138455.1,286046996.9,N
1514138475.9,286046995.2,N
1514138495.7,286046992.7,Y
1514138515.5,286046996.6,P
1514138535.4,286047000.0,N
1514138555.2,286046999.8,N
1514138575.0,286047004.1,N
1514138575.9,286047004.1,N
1514138595.8,286047001.5,N
1514138615.6,286047002.6,N
1514138635.5,286047000.7,N
1514138655.3,286046999.5,N
1514138675.1,286046996.4,N
1514138695.9,286046993.3,N
1514138715.7,286046997.0,N
1514138735.6,286046998.9,N
1514138755.4,286046999.9,N
1514138775.2,286047000.0,N
1514138795.1,286047004.2,N
1514138796.0,286047004.2,N
1514138815.8,286047003.5,N
1514138835.7,286047003.1,N
1514138855.5,286047003.1,N
1514138875.3,286047004.4,N
1514138895.2,286047004.3,N
1514138915.0,286047001.4,N
1514138915.9,286047001.4,N
1514138935.7,286047000.5,N
1514138955.6,286047000.4,N
1514138975.4,286047004.1,N
1514138995.3,286047004.3,N
1514139015.1,286047004.4,N
1514139035.8,286046999.8,N
1514139055.7,286046998.6,N
1514139075.5,286047000.0,N
1514139095.4,286047002.5,N
1514139115.2,286047004.2,N
1514139135.0,286047003.0,N
1514139135.9,286047003.0,N
1514139155.8,286047011.9,Y
1514139175.6,286047003.7,P
1514139195.5,286047004.3,P
1514139215.3,286047002.2,N
1514139235.1,286047001.4,N
1514139255.9,286047003.8,Y
1514139275.7,286046998.7,P
1514139295.5,286046997.2,N
1514139315.4,286046997.7,N
1514139335.2,286046996.5,N
1514139355.1,286046997.4,N
1514139356.0,286046997.4,N
1514139375.8,286046996.6,N
1514139395.6,286047000.4,N
1514139415.5,286047000.7,N
1514139435.3,286047002.4,N
1514139455.1,286047002.4,N
1514139475.9,286047002.2,N
1514139495.7,286047002.6,N
1514139515.6,286046999.7,N
1514139535.4,286046999.7,N
1514139555.2,286047001.9,N
1514139575.1,286047002.0,N
1514139576.0,286047002.0,N
1514139595.8,286047002.7,N
1514139615.7,286047002.2,N
1514139635.5,286047001.0,N
1514139655.3,286046999.0,N
1514139675.2,286046998.4,N
1514139695.0,286046997.4,N
1514139695.9,286046997.4,N
1514139715.8,286046996.6,N
1514139735.6,286047000.9,N
1514139755.4,286047001.1,N
1514139775.3,286046999.1,N
1514139795.1,286046999.2,N
1514139815.8,286046999.1,N
1514139835.7,286046998.2,N
1514139855.5,286046999.5,N
1514139875.4,286046997.4,N
1514139895.2,286046996.7,N
1514139915.0,286046996.9,N
1514139915.9,286046996.9,N
1514139935.8,286046999.1,N
1514139955.6,286046998.4,N
1514139975.5,286046998.9,N
1514139995.3,286046996.5,N
1514140015.1,286046998.9,N
1514140035.9,286047001.2,N
1514140055.7,286047002.2,N
1514140075.5,286047002.4,N
1514140095.4,286047001.5,N
1514140115.2,286047002.7,N
1514140135.1,286047001.9,N
1514140136.0,286047001.9,N
1514140155.8,286047002.2,N
1514140175.6,286047000.8,N
1514140195.5,286047002.7,N
1514140215.3,286046998.4,N
1514140235.2,286046998.3,N
1514140255.9,286047000.8,N
1514140275.7,286046997.3,N
1514140295.6,286046999.5,N
1514140315.4,286047000.6,N
1514140335.3,286046998.1,N
1514140355.1,286047002.4,N
1514140356.0,286047002.4,N
1514140375.8,286046999.8,N
1514140395.7,286047001.2,N
1514140415.5,286047000.7,N
1514140435.3,286047002.8,N
1514140455.2,286047000.1,N
1514140475.0,286046999.4,N
1514140475.9,286046999.4,N
1514140495.8,286046996.7,N
1514140515.6,286046999.1,N
1514140535.4,286046998.5,N
1514140555.3,286047000.3,N
1514140575.1,286047003.9,N
1514140595.9,286046999.9,N
1514140615.7,286047002.2,N
1514140635.5,286047002.5,N
1514140655.4,286047000.0,N
1514140675.2,286046998.2,N
1514140695.0,286046998.5,N
1514140695.9,286046998.5,N
1514140715.8,286046996.6,N
1514140735.6,286046997.3,N
1514140755.5,286046999.3,N
1514140775.3,286047000.8,N
1514140795.1,286047001.0,N
1514140815.9,286046999.7,N
1514140835.7,286047002.0,N
1514140855.6,286047000.5,N
1514140875.4,286047000.5,N
1514140895.2,286046999.6,N
1514140915.1,286046998.6,N
1514140916.0,286046998.6,N
1514140935.8,286047000.6,N
1514140955.6,286047002.8,N
1514140975.5,286047000.3,N
1514140995.3,286047000.9,N
1514141015.2,286047002.8,N
1514141035.9,286047000.5,N
1514141055.7,286046999.4,N
1514141075.6,286046999.4,N
1514141095.4,286047000.4,N
1514141115.3,286047002.4,N
1514141135.1,286047002.2,N
1514141136.0,286047002.2,N
1514141155.8,286047000.6,N
1514141175.7,286047000.6,N
1514141195.5,286046998.2,N
1514141215.3,286046998.4,N
1514141235.2,286046998.1,N
1514141255.0,286046998.1,N
1514141255.9,286046998.1,N
1514141275.8,286046998.5,N
1514141295.6,286046999.2,N
1514141315.4,286047000.5,N
1514141335.3,286047000.9,N
1514141355.1,286047001.2,N
1514141375.9,286046997.4,N
1514141395.7,286046996.6,N
1514141415.5,286046997.6,N
1514141435.4,286046996.2,N
1514141455.2,286046994.5,Y
1514141475.0,286046993.5,P
1514141476.0,286046993.5,N
1514141495.8,286046990.2,P
1514141515.6,286046992.2,N
1514141535.5,286046994.0,N
1514141555.3,286046994.1,N
1514141575.1,286046994.9,N
1514141595.9,286046995.4,N
1514141615.7,286046996.7,N
1514141635.6,286046997.6,N
1514141655.4,286046995.0,N
1514141675.2,286046993.6,N
1514141695.1,286046993.0,Y
1514141696.0,286046993.0,P
1514141715.8,286047000.9,N
1514141735.7,286047001.5,N
1514141755.5,286047002.0,N
1514141775.3,286047002.5,N
1514141795.2,286047003.6,N
1514141815.0,286047003.5,N
1514141815.9,286047003.5,N
1514141835.8,286047002.2,N
1514141855.6,286047001.3,N
1514141875.4,286047001.3,N
1514141895.3,286047003.5,N
1514141915.1,286047003.1,N
1514141935.8,286047003.6,N
1514141955.7,286047005.3,N
1514141975.5,286047006.0,N
1514141995.4,286047005.6,N
